Temp
-13 -13 -12 -13 -13 -13 -12 -12 -11 -11 -11 -10 -10 -9 -9 -9 -9 -9 -9 -9 -9 -9 -9 -9 -9 -8 -9 -8 -9 -9 -9 -9 -10 -9 -9 -10 -10 -10 -10 -10 -10 -10 -10 -10
-13 -14 -14 -13 -13 -13 -12 -12 -12 -11 -11 -11 -10 -10 -10 -9 -9 -9 -10 -9 -9 -9 -9 -9 -10 -10 -10 -10 -10 -10 -10 -10 -10 -10 -10 -10 -10 -10 -10 -10 -10 -10 -10 -10
-14 -14 -14 -13 -13 -13 -12 -12 -12 -12 -11 -10 -10 -10 -10 -11 -10 -10 -10 -10 -10 -10 -9 -9 -10 -10 -10 -11 -11 -11 -11 -11 -11 -11 -11 -11 -11 -11 -11 -11 -11 -11 -11 -11
-14 -13 -13 -13 -13 -13 -12 -12 -12 -12 -12 -11 -11 -10 -10 -10 -11 -11 -10 -10 -10 -10 -10 -10 -10 -10 -11 -11 -11 -11 -11 -11 -11 -11 -11 -11 -11 -11 -12 -11 -11 -11 -12 -12
-13 -13 -13 -13 -13 -13 -12 -12 -12 -12 -12 -11 -11 -11 -10 -11 -11 -11 -11 -11 -11 -11 -11 -11 -10 -10 -10 -11 -11 -11 -11 -11 -12 -12 -11 -12 -12 -12 -13 -13 -12 -12 -12 -12
-14 -13 -13 -13 -13 -13 -13 -13 -12 -12 -12 -12 -12 -12 -11 -11 -12 -11 -11 -11 -11 -11 -10 -10 -10 -10 -10 -11 -11 -11 -12 -12 -12 -12 -12 -12 -13 -13 -13 -12 -12 -13 -12 -12
-13 -13 -13 -13 -13 -13 -12 -12 -12 -12 -12 -12 -12 -12 -12 -11 -11 -12 -12 -11 -11 -11 -11 -11 -10 -10 -10 -10 -11 -11 -12 -12 -12 -12 -12 -12 -12 -13 -13 -13 -13 -13 -14 -14
-14 -14 -14 -14 -14 -14 -14 -13 -13 -13 -12 -12 -12 -11 -11 -12 -12 -12 -12 -12 -11 -11 -11 -11 -11 -11 -11 -11 -11 -11 -11 -11 -12 -12 -12 -13 -13 -13 -14 -14 -14 -14 -13 -13
-14 -13 -14 -14 -14 -14 -14 -13 -13 -13 -12 -12 -12 -12 -12 -12 -12 -12 -12 -12 -12 -11 -11 -12 -12 -12 -12 -12 -12 -13 -13 -13 -13 -13 -13 -13 -14 -14 -14 -14 -14 -14 -14 -13
-14 -14 -14 -14 -14 -14 -14 -14 -14 -14 -13 -13 -12 -12 -12 -13 -13 -13 -13 -13 -12 -12 -12 -12 -12 -13 -13 -13 -13 -13 -13 -13 -14 -14 -15 -15 -15 -15 -15 -15 -15 -14 -14 -14
-15 -15 -15 -15 -15 -15 -14 -14 -14 -14 -14 -14 -13 -13 -13 -14 -14 -14 -13 -14 -14 -14 -13 -13 -13 -13 -13 -13 -13 -13 -13 -14 -14 -14 -14 -15 -15 -15 -15 -15 -15 -15 -15 -15
-15 -15 -15 -15 -15 -15 -15 -15 -15 -14 -14 -14 -14 -13 -14 -14 -14 -14 -13 -13 -13 -13 -13 -13 -13 -13 -13 -13 -13 -13 -13 -14 -14 -14 -14 -14 -14 -15 -15 -15 -15 -15 -14 -15
-15 -15 -15 -15 -14 -14 -14 -14 -14 -14 -14 -14 -14 -14 -14 -15 -15 -14 -14 -14 -14 -14 -13 -13 -13 -14 -14 -13 -13 -14 -14 -14 -14 -14 -14 -15 -15 -15 -15 -15 -15 -15 -15 -15
-15 -15 -15 -14 -14 -14 -14 -14 -14 -14 -14 -14 -14 -15 -15 -15 -14 -14 -14 -14 -14 -14 -14 -14 -14 -14 -13 -13 -13 -13 -14 -14 -14 -14 -15 -15 -15 -15 -15 -15 -15 -15 -16 -16
-15 -15 -15 -15 -15 -15 -15 -15 -15 -15 -15 -14 -15 -15 -15 -15 -15 -15 -14 -14 -14 -14 -14 -14 -13 -14 -14 -14 -14 -15 -15 -15 -15 -15 -16 -16 -16 -17 -17 -17 -17 -17 -17 -17
-15 -15 -15 -15 -15 -15 -15 -15 -15 -15 -15 -15 -15 -15 -15 -15 -15 -15 -15 -15 -15 -15 -15 -15 -15 -16 -16 -17 -17 -17 -17 -17 -17 -18 -18 -18 -18 -18 -18 -18 -18 -18 -18 -18
-15 -15 -15 -15 -15 -15 -15 -15 -15 -15 -15 -15 -15 -15 -15 -15 -15 -15 -16 -16 -16 -17 -18 -18 -18 -18 -18 -18 -18 -18 -18 -18 -18 -18 -18 -17 -17 -17 -17 -17 -17 -17 -17 -16
-16 -16 -15 -16 -16 -16 -16 -15 -16 -15 -16 -16 -16 -16 -16 -16 -16 -17 -17 -17 -18 -18 -19 -18 -18 -18 -18 -18 -18 -18 -18 -18 -17 -17 -17 -17 -17 -17 -17 -17 -16 -16 -16 -16
-16 -16 -16 -16 -16 -16 -16 -16 -16 -16 -16 -16 -16 -16 -16 -16 -17 -18 -18 -18 -19 -19 -19 -19 -18 -18 -18 -18 -18 -18 -18 -18 -17 -17 -17 -16 -16 -16 -15 -15 -15 -15 -15 -15
-16 -16 -16 -16 -16 -16 -16 -16 -16 -16 -16 -17 -17 -17 -17 -17 -17 -19 -19 -19 -19 -19 -19 -18 -18 -18 -18 -18 -18 -17 -17 -17 -17 -16 -16 -16 -16 -15 -15 -15 -14 -14 -14 -14
-16 -16 -16 -16 -16 -16 -16 -16 -16 -16 -16 -16 -17 -17 -17 -17 -18 -19 -19 -19 -19 -19 -19 -18 -18 -18 -18 -18 -17 -17 -16 -16 -16 -15 -15 -15 -15 -15 -15 -14 -14 -14 -14 -15
-17 -16 -17 -16 -16 -16 -16 -16 -16 -16 -17 -17 -17 -17 -18 -19 -19 -19 -19 -19 -19 -19 -18 -18 -17 -17 -18 -17 -16 -16 -16 -15 -15 -15 -14 -14 -14 -14 -14 -14 -15 -15 -15 -15
-17 -17 -17 -17 -17 -16 -16 -16 -16 -16 -17 -17 -18 -19 -19 -19 -19 -19 -19 -19 -19 -18 -18 -17 -17 -17 -17 -16 -16 -15 -15 -15 -14 -14 -14 -14 -14 -14 -14 -15 -15 -15 -15 -16
-17 -17 -17 -17 -17 -17 -17 -16 -16 -17 -17 -18 -19 -19 -19 -19 -19 -18 -18 -18 -18 -18 -17 -17 -17 -16 -16 -16 -16 -15 -15 -14 -14 -14 -14 -14 -14 -14 -15 -15 -15 -15 -16 -16
-18 -17 -17 -17 -17 -17 -16 -16 -16 -17 -18 -18 -18 -18 -19 -18 -18 -18 -18 -18 -17 -17 -17 -16 -16 -16 -16 -16 -15 -14 -14 -14 -14 -14 -14 -14 -14 -15 -15 -15 -15 -16 -16 -16
-18 -18 -17 -17 -17 -17 -16 -16 -17 -18 -18 -18 -18 -18 -18 -18 -18 -18 -17 -17 -17 -17 -16 -16 -16 -16 -16 -15 -15 -15 -14 -14 -14 -14 -14 -14 -14 -15 -15 -15 -15 -16 -17 -17
Height
5731 5738 5744 5752 5756 5761 5767 5773 5778 5782 5785 5788 5791 5794 5800 5803 5808 5810 5812 5816 5820 5827 5829 5827 5824 5827 5827 5829 5830 5829 5828 5826 5825 5827 5827 5827 5827 5828 5829 5829 5828 5827 5826 5826
5730 5736 5741 5746 5751 5757 5764 5769 5774 5777 5778 5781 5784 5786 5790 5796 5800 5804 5807 5810 5813 5815 5818 5818 5819 5820 5819 5819 5819 5818 5817 5816 5816 5815 5816 5818 5818 5819 5819 5820 5819 5818 5818 5817
5729 5734 5738 5743 5747 5753 5758 5763 5769 5773 5775 5777 5780 5781 5784 5790 5793 5795 5797 5800 5802 5804 5806 5807 5808 5809 5809 5809 5809 5808 5808 5808 5809 5808 5807 5808 5808 5809 5809 5809 5809 5808 5807 5805
5725 5729 5734 5737 5742 5747 5753 5758 5763 5768 5769 5772 5775 5777 5780 5782 5786 5788 5791 5793 5795 5795 5796 5797 5797 5799 5800 5800 5800 5800 5800 5800 5799 5799 5800 5799 5799 5798 5796 5795 5797 5796 5794 5793
5724 5726 5729 5733 5738 5742 5748 5751 5757 5761 5764 5766 5769 5771 5775 5776 5778 5781 5783 5784 5784 5786 5787 5788 5789 5791 5792 5791 5791 5791 5791 5791 5790 5789 5789 5788 5789 5788 5786 5786 5785 5784 5784 5783
5716 5721 5726 5730 5734 5736 5742 5745 5750 5755 5758 5760 5761 5762 5765 5768 5770 5772 5774 5775 5775 5775 5777 5778 5779 5780 5782 5781 5782 5782 5781 5779 5778 5778 5778 5776 5777 5778 5776 5775 5774 5773 5772 5771
5713 5717 5721 5726 5730 5733 5737 5741 5745 5749 5750 5752 5755 5757 5757 5760 5761 5763 5764 5766 5767 5767 5767 5767 5768 5769 5770 5770 5771 5771 5771 5770 5768 5767 5766 5766 5766 5765 5764 5764 5763 5761 5760 5758
5709 5714 5716 5720 5724 5727 5731 5735 5739 5740 5743 5745 5747 5749 5748 5751 5754 5755 5756 5756 5757 5757 5757 5757 5757 5757 5757 5758 5758 5758 5758 5757 5757 5756 5755 5754 5754 5753 5752 5751 5750 5749 5748 5747
5704 5707 5711 5714 5718 5722 5725 5728 5732 5732 5735 5737 5739 5742 5742 5743 5744 5746 5746 5746 5746 5746 5746 5746 5746 5745 5745 5745 5746 5746 5745 5743 5743 5742 5740 5740 5739 5739 5739 5738 5737 5737 5735 5735
5699 5702 5705 5709 5712 5715 5718 5722 5724 5725 5726 5728 5730 5733 5735 5735 5733 5733 5733 5734 5735 5734 5734 5734 5734 5734 5733 5732 5731 5730 5730 5730 5730 5729 5728 5727 5726 5726 5725 5725 5723 5722 5720 5720
5692 5696 5700 5702 5704 5707 5711 5714 5717 5720 5720 5720 5722 5725 5726 5726 5726 5725 5724 5724 5726 5726 5726 5725 5723 5722 5721 5720 5720 5720 5719 5717 5716 5715 5713 5712 5712 5711 5710 5709 5708 5706 5705 5703
5686 5689 5692 5696 5699 5702 5705 5708 5710 5711 5715 5714 5716 5720 5720 5720 5718 5718 5717 5717 5716 5716 5715 5714 5713 5712 5711 5710 5709 5708 5707 5706 5705 5703 5702 5700 5698 5696 5694 5692 5690 5689 5688 5685
5684 5687 5690 5693 5697 5698 5700 5703 5705 5707 5709 5711 5710 5714 5713 5712 5711 5710 5709 5709 5708 5706 5705 5703 5702 5700 5698 5697 5696 5694 5693 5692 5691 5690 5688 5685 5682 5679 5677 5675 5673 5669 5667 5666
5682 5684 5686 5689 5692 5695 5697 5698 5700 5701 5704 5704 5705 5705 5704 5704 5703 5702 5700 5698 5697 5695 5693 5691 5688 5687 5685 5682 5681 5679 5678 5676 5674 5672 5669 5667 5664 5661 5659 5657 5654 5651 5649 5647
5678 5681 5683 5685 5688 5690 5692 5693 5694 5696 5697 5696 5699 5695 5697 5694 5693 5692 5690 5688 5685 5683 5680 5678 5675 5672 5670 5667 5665 5663 5661 5659 5656 5653 5651 5648 5644 5641 5639 5637 5635 5633 5630 5627
5676 5678 5679 5681 5683 5684 5687 5688 5687 5689 5689 5689 5688 5688 5686 5686 5684 5682 5680 5677 5673 5669 5665 5662 5659 5657 5655 5653 5651 5649 5646 5643 5641 5638 5635 5632 5628 5625 5623 5620 5617 5614 5611 5607
5671 5673 5675 5677 5678 5680 5684 5683 5682 5683 5683 5681 5680 5678 5677 5674 5672 5669 5665 5661 5658 5654 5651 5649 5647 5645 5643 5642 5639 5637 5636 5633 5630 5626 5623 5618 5614 5611 5607 5603 5598 5594 5591 5586
5665 5667 5670 5671 5672 5674 5676 5677 5677 5676 5675 5672 5671 5667 5664 5662 5659 5655 5651 5649 5646 5643 5641 5640 5637 5635 5633 5630 5627 5626 5624 5620 5617 5613 5609 5605 5600 5596 5591 5587 5582 5578 5574 5570
5661 5663 5665 5666 5667 5668 5669 5670 5669 5667 5665 5663 5660 5657 5653 5650 5646 5642 5638 5636 5634 5632 5631 5629 5627 5625 5622 5618 5616 5613 5611 5606 5603 5599 5597 5593 5587 5581 5576 5572 5567 5562 5556 5553
5655 5657 5660 5661 5661 5661 5663 5662 5660 5659 5657 5654 5650 5646 5642 5638 5635 5630 5627 5625 5624 5622 5620 5619 5617 5614 5611 5608 5604 5601 5598 5594 5591 5589 5585 5580 5573 5568 5563 5557 5552 5546 5541 5536
5649 5650 5653 5654 5654 5656 5655 5654 5653 5651 5650 5643 5640 5635 5631 5627 5623 5620 5618 5616 5614 5612 5610 5607 5605 5603 5599 5596 5592 5590 5588 5584 5582 5578 5573 5567 5562 5556 5550 5544 5537 5532 5526 5520
5644 5645 5647 5647 5647 5648 5646 5645 5644 5640 5635 5631 5626 5622 5618 5615 5612 5609 5609 5607 5604 5603 5600 5596 5594 5592 5588 5584 5582 5582 5578 5575 5571 5566 5561 5557 5552 5545 5538 5531 5524 5517 5510 5505
5639 5640 5641 5642 5641 5639 5638 5635 5631 5628 5624 5617 5612 5607 5604 5604 5602 5600 5599 5597 5595 5591 5589 5586 5584 5582 5578 5576 5573 5572 5570 5565 5561 5557 5552 5547 5541 5533 5525 5518 5511 5503 5495 5488
5632 5633 5635 5634 5633 5632 5628 5624 5621 5616 5609 5604 5600 5597 5595 5594 5592 5591 5589 5587 5584 5581 5578 5576 5575 5573 5572 5569 5566 5562 5560 5557 5553 5549 5543 5537 5530 5522 5513 5506 5497 5489 5480 5473
5625 5626 5626 5626 5625 5622 5618 5615 5610 5604 5600 5596 5593 5589 5587 5585 5584 5582 5580 5577 5574 5572 5570 5568 5568 5567 5565 5563 5559 5556 5554 5550 5546 5540 5534 5527 5519 5510 5502 5493 5483 5475 5466 5460
5618 5619 5619 5617 5616 5613 5610 5606 5602 5597 5592 5588 5585 5581 5578 5576 5574 5572 5570 5568 5566 5564 5564 5564 5562 5561 5558 5556 5553 5551 5547 5543 5539 5533 5526 5518 5509 5499 5490 5481 5471 5460 5453 5445
Wind_Speed
26 27 25 24 24 23 27 27 28 29 31 33 36 37 36 38 41 44 45 44 43 39 39 43 49 47 47 46 47 47 48 49 48 45 42 41 39 39 38 40 42 43 44 45
26 22 21 26 26 26 29 30 30 33 35 36 37 39 39 39 41 41 40 41 41 41 41 42 44 44 45 45 42 42 44 45 45 45 42 40 40 41 42 42 43 45 46 48
17 18 20 23 25 28 29 29 28 29 33 37 38 39 39 36 38 39 40 39 39 39 39 38 37 33 36 38 38 39 41 42 42 42 44 44 44 44 46 45 46 47 49 50
23 24 25 26 26 25 25 25 25 26 31 35 36 39 38 39 37 36 37 37 36 35 36 37 38 34 35 36 37 38 41 42 43 44 45 45 45 45 46 47 47 46 48 49
25 26 27 27 25 26 26 26 26 26 28 30 33 35 33 33 32 31 30 31 35 36 38 39 39 39 39 40 42 44 45 45 44 44 43 41 39 37 40 41 43 42 45 47
31 31 31 31 29 31 28 29 28 28 29 32 33 34 34 32 32 32 33 35 37 40 40 41 41 42 43 45 46 46 46 45 46 45 43 43 40 41 43 44 44 47 49 50
30 31 31 29 30 32 31 30 30 30 31 33 31 33 37 34 34 35 36 37 38 40 43 45 46 46 47 48 48 47 43 42 44 46 47 47 46 47 49 47 45 48 49 51
28 28 29 30 30 29 28 28 28 29 30 32 32 35 38 36 36 37 38 38 39 41 43 44 44 45 46 45 44 43 44 45 46 49 51 52 52 51 52 51 49 51 53 55
31 32 32 31 31 32 31 32 31 33 35 35 35 34 35 34 33 34 36 38 41 44 45 45 46 47 48 47 46 45 48 49 49 50 53 54 55 57 58 58 58 58 59 58
29 31 32 32 32 32 31 30 30 31 32 32 34 34 36 33 34 34 35 37 39 40 41 42 41 41 44 47 49 53 55 54 54 54 53 54 57 60 61 61 60 61 62 63
29 31 32 32 31 31 29 30 31 31 35 35 34 32 26 25 23 25 28 30 31 31 33 35 36 37 38 39 41 43 45 48 54 58 60 62 63 65 65 66 65 65 63 65
15 18 24 27 30 32 30 26 25 28 26 26 22 21 19 22 25 28 31 33 34 35 37 39 40 42 44 45 46 46 47 47 49 51 54 56 59 60 61 66 69 64 65 67
17 16 16 16 16 16 16 16 16 17 18 18 24 22 21 25 29 32 35 36 38 41 43 44 46 47 49 51 52 53 55 54 55 58 62 66 68 69 70 75 73 72 73 72
15 16 16 17 16 17 17 18 19 21 21 23 24 25 28 30 33 34 37 39 41 43 45 48 50 51 52 54 55 56 57 59 60 62 64 66 67 69 71 73 75 75 74 77
19 18 19 18 18 18 18 19 21 22 23 28 25 31 30 33 34 36 38 41 44 46 48 50 51 52 53 53 53 53 54 55 57 56 56 57 58 60 65 69 71 72 74 76
17 16 17 18 18 19 18 21 24 24 25 27 29 28 33 33 36 39 42 45 47 48 48 49 50 48 45 42 41 41 40 40 41 42 45 49 52 51 53 55 58 63 67 69
17 18 18 18 20 19 16 20 23 24 26 28 30 33 35 38 39 41 43 44 43 43 41 38 37 37 37 35 34 37 39 41 43 48 52 52 56 58 60 61 61 62 64 64
18 18 18 17 18 19 17 19 22 25 27 31 33 36 39 40 41 40 42 40 37 36 36 37 36 35 37 38 41 41 43 46 48 49 52 53 52 51 53 56 59 59 60 60
18 19 18 18 19 20 21 20 23 27 30 34 36 39 40 40 42 41 42 37 36 36 34 34 33 33 35 39 40 43 46 48 47 48 44 44 48 51 52 53 55 56 57 58
20 20 19 20 22 23 21 24 28 31 32 33 37 40 41 43 45 40 38 37 37 36 36 35 35 36 37 41 43 43 43 41 39 39 43 45 48 48 46 44 44 45 48 51
19 20 19 21 23 22 24 25 29 31 35 36 39 42 44 43 41 38 36 35 37 36 36 38 38 38 41 42 41 36 32 35 37 39 40 38 36 38 42 46 49 51 49 50
20 21 20 21 22 25 26 28 30 35 39 42 44 45 43 37 35 36 36 39 40 39 40 40 40 40 40 35 30 29 33 34 35 34 32 34 38 42 45 49 49 46 48 52
21 22 20 21 24 27 27 30 36 40 44 46 45 39 36 32 32 35 36 38 39 41 40 40 40 35 28 28 31 31 32 28 28 29 34 37 39 44 48 46 47 50 50 50
23 24 22 25 26 27 29 34 39 46 45 38 35 31 30 31 32 32 33 36 38 40 39 36 29 22 24 29 32 31 21 21 28 32 34 37 42 42 45 46 48 47 49 46
25 24 26 26 26 28 31 36 42 41 38 36 33 32 32 31 30 32 34 34 34 33 29 21 19 22 27 28 27 20 21 26 28 32 35 42 41 42 44 46 48 47 48 46
25 26 26 26 26 29 33 38 38 36 33 31 30 29 30 29 28 29 29 28 26 22 16 17 22 25 25 22 20 20 24 29 31 32 38 40 43 45 44 45 47 48 46 42
Wind_Direction
206 212 212 219 224 219 222 221 221 226 231 231 234 235 233 236 237 239 241 246 251 256 255 255 261 266 269 272 276 280 283 284 284 282 278 278 274 272 269 269 270 270 270 271
204 203 199 210 214 213 215 216 215 220 228 231 236 238 238 238 242 247 250 252 253 253 252 255 262 269 273 276 277 278 278 279 280 281 278 275 273 272 271 268 268 270 272 274
197 191 200 204 207 213 219 221 218 221 227 234 237 243 249 250 250 253 255 260 261 262 264 264 264 265 268 269 269 268 271 273 273 273 274 274 273 273 271 271 270 272 272 272
196 197 206 213 216 219 224 226 227 226 233 237 240 245 247 251 254 255 258 259 261 263 262 262 261 257 260 261 261 262 261 263 265 264 265 266 267 269 271 272 272 269 268 270
207 208 214 221 221 225 227 229 228 230 235 241 245 247 246 251 253 253 252 256 258 253 252 256 258 258 258 258 256 255 257 261 266 269 268 267 267 263 262 262 266 263 267 269
212 213 217 221 223 231 231 234 231 230 232 237 241 250 252 252 254 254 254 255 256 259 257 254 253 253 252 253 255 257 262 265 267 267 264 265 267 265 265 266 265 263 263 263
219 220 224 226 229 232 234 238 242 240 237 242 246 248 255 251 253 256 257 256 256 258 261 263 263 263 263 262 263 265 264 263 263 265 264 264 265 266 269 271 265 262 262 262
221 222 224 224 227 234 238 239 240 244 242 244 245 247 252 257 256 259 260 261 261 261 261 262 263 265 267 268 269 267 263 262 260 262 265 267 267 268 269 270 268 266 264 263
223 225 225 228 230 234 235 237 242 246 248 251 253 255 258 262 265 262 260 261 261 262 263 262 264 266 267 266 264 263 264 262 262 263 265 267 268 269 269 269 269 270 270 269
227 228 229 232 233 237 239 241 244 249 256 257 260 261 267 271 271 271 270 268 267 266 267 268 266 265 265 265 263 260 257 255 257 257 259 261 264 265 266 268 270 270 271 273
249 240 229 231 234 239 243 248 251 256 261 268 271 271 273 274 272 271 268 268 269 272 274 273 272 271 267 267 270 268 264 262 257 254 255 259 263 262 265 267 269 268 271 273
220 221 225 233 240 246 252 254 250 250 258 261 266 264 279 280 275 272 273 276 280 280 277 275 273 271 271 271 270 269 267 264 260 262 262 264 266 267 265 269 269 269 267 271
209 217 221 225 227 227 231 233 236 244 254 264 268 280 270 270 275 277 279 281 280 280 280 279 277 276 276 274 273 273 273 271 268 266 266 268 268 269 270 270 272 273 275 272
209 217 223 230 234 240 247 249 252 255 260 263 268 274 275 275 276 279 282 282 281 280 279 278 278 277 275 275 275 274 274 273 272 271 269 269 269 268 268 269 270 270 269 269
225 233 242 248 251 252 254 257 260 265 267 272 276 276 279 281 282 282 282 282 282 280 278 276 276 275 276 276 275 276 275 276 276 277 279 278 277 275 273 272 271 272 274 274
231 235 239 245 249 254 259 264 268 269 271 276 277 279 279 279 280 284 285 283 281 280 279 278 276 276 277 279 281 281 281 283 283 283 283 282 280 277 280 280 278 274 276 276
236 240 245 249 254 256 252 258 266 270 274 275 277 279 282 284 288 290 290 288 286 284 281 281 282 279 277 275 276 277 280 280 279 280 284 283 281 282 283 283 282 281 280 279
240 243 248 252 259 263 266 268 275 278 278 277 282 283 286 289 293 293 290 288 283 279 278 279 281 279 274 274 280 278 280 282 282 284 284 285 286 286 284 283 283 284 283 283
237 243 246 249 253 265 273 280 281 280 281 284 286 288 290 293 294 290 290 284 280 281 279 280 278 277 274 275 282 285 285 285 284 284 286 288 288 286 285 286 286 284 283 283
237 239 244 249 258 268 275 276 279 280 285 286 288 291 293 296 295 288 284 281 284 283 277 276 281 282 282 284 286 286 283 283 286 291 293 292 288 290 295 293 291 291 290 288
241 244 252 260 269 275 277 278 280 286 291 294 294 292 292 293 287 278 274 281 282 282 281 283 285 288 289 291 288 288 291 291 293 291 291 293 296 296 295 296 294 293 291 290
244 252 261 268 274 275 279 286 295 297 297 296 294 295 293 284 276 273 273 274 278 281 282 285 289 290 291 290 289 292 294 293 294 295 294 298 300 303 302 301 301 300 296 296
249 258 265 273 275 279 289 296 299 301 300 299 296 291 286 279 276 274 274 277 281 282 284 288 291 292 289 291 294 296 300 301 298 298 301 302 303 303 305 306 304 304 305 301
254 260 267 272 278 289 294 302 306 305 304 302 299 292 288 286 282 279 280 281 282 284 287 289 291 289 292 295 299 304 306 308 305 302 306 310 312 309 306 307 308 308 306 306
259 265 270 278 286 292 300 307 308 308 305 302 298 293 290 288 286 282 282 284 285 288 290 286 289 293 294 297 300 298 304 310 312 314 315 319 318 313 311 310 311 308 305 305
263 267 273 280 289 297 304 307 307 304 306 306 305 302 298 292 288 287 288 288 290 292 286 290 294 294 299 300 297 300 308 317 320 319 322 328 324 319 315 315 317 314 309 304